STARLINK-11160, 60125

Orbit data source: Space-Track

STARLINK-11160, 60125 is a payload satellite owned by SpaceX/Seattle (US) in LEO that was launched on Mon, 24 Jun 2024 UTC via an FALCON 9 launch vehicle from the Air Force Western Test Range (AFWTR). Payload-class satellites include a variety of spacecraft equipped with specific instruments for various scientific and technological missions. These include communications satellites like Starlink; space stations such as the ISS; scientific satellites like the Hubble; Earth observation satellites from companies like Planet Labs, Umbra, and HawkEye 360; GPS; miniature CubeSats for education and research; and military/defense satellites.

Loading next visibility...
Identifier
60125, 2024-118N
Orbit
LEO
Country
Flag of USUS
Related business
Manufacturer
SpaceX/Seattle
Mission
Operational Commercial Communications
Bus & Motor
STARLINK V2MD, Unknown motor
Mass
960 kg wet, ~910 kg dry
Launch date (UTC)
2024-06-24 (1 year ago)
Launch vehicle
FALCON 9
Launch site
Air Force Western Test Range (AFWTR)
Object type
Payload
Rocket body
Debris
Shape & HBR
Box + 2 Pan, 14.5 m
Radar Cross Section
33.884 m², Large (>1 m²)

Expand to show TLE details & history
Last TLE update: 16 hours ago

TLE from 16 hours ago
0 STARLINK-11160
1 60125U 24118N   25260.24455770  .00004043  00000-0  38220-4 0  9999
2 60125  53.1584 356.1439 0000875  97.0725 263.0393 15.69705776 70751
Epoch: 2025-09-17T05:52Z
TLE epoch observation values (Epoch: 2025-09-17T05:52:09.785Z)
Latitude
0.00004°
Longitude
-88.32013°
Altitude
360.725 km
Speed
7.694 km/s
True Right ascension
23h 44m 34s
True Declination
0° 00' 00"
Sunlit
Object was in full shadow at epoch
Visualization orbit readout
Latitude
Unknown
Longitude
Unknown
Altitude
Unknown
Speed
Unknown
Apparent Right ascension
Unknown
Apparent Declination
Unknown
Sunlit
N/A
Visualization observer readout
Local Sidereal Time
14:51:40
Azimuth
Unknown
Elevation
Unknown
Doppler factor
Unknown
Orbital elements
Apogee altitude
360.589 km
Perigee altitude
359.41 km
Semi-major axis
6,738.137 km
Eccentricity
0.00009
Inclination
53.1584°
RAAN
356.1439°
Arg. of periapsis
97.0725°
True anomaly
263.02935°
Mean anomaly
263.0393°
Eccentric anomaly
263.03432°
Mean motion
3.92404 °/min
Orbital period
91.74 mins
BSTAR
0.00003822
Loading maneuver chart data...
Computing Atmospheric mass density...
Loading historical data...
Loading historical data...
Loading historical data...
Loading historical data...
Loading historical data...
Loading historical data...
Loading historical data...

Documentation

Showing up to 5 results
|